| time (UTC) | temp F | wind direction | speed knots | gust knots | rain 1hr in | rain 24hr in | rain mn in | humidity % | barometer mb |
| 20260507051502 | 51 | 263 | 1.7 | 6.1 | 0.00 | 0.00 | 0.00 | 88 | 1013.0 |
| 20260507044502 | 51 | 259 | 0.9 | 2.6 | 0.00 | 0.00 | 0.00 | 90 | 1013.0 |
| 20260507043003 | 51 | 254 | 0.9 | 0.9 | 0.00 | 0.00 | 0.00 | 91 | 1012.0 |
| 20260507041502 | 51 | 230 | 0.0 | 2.6 | 0.00 | 0.00 | 0.00 | 91 | 1012.0 |
| 20260507040002 | 50 | 260 | 1.7 | 1.7 | 0.00 | 0.00 | 0.00 | 92 | 1012.0 |
| 20260507034502 | 50 | 247 | 0.9 | 0.9 | 0.00 | 0.00 | 0.00 | 92 | 1012.0 |
| 20260507033002 | 51 | 238 | 0.0 | 0.9 | 0.00 | 0.00 | 0.00 | 91 | 1012.0 |
| 20260507031502 | 51 | 260 | 0.0 | 1.7 | 0.00 | 0.00 | 0.00 | 91 | 1012.0 |
| 20260507030002 | 52 | 243 | 0.0 | 0.9 | 0.00 | 0.00 | 0.00 | 91 | 1011.0 |
| 20260507024502 | 52 | 260 | 0.0 | 0.9 | 0.00 | 0.00 | 0.00 | 91 | 1011.0 |
| 20260507023002 | 53 | 265 | 0.9 | 1.7 | 0.00 | 0.00 | 0.00 | 91 | 1011.0 |
| 20260507021502 | 53 | 262 | 0.9 | 2.6 | 0.00 | 0.00 | 0.00 | 89 | 1011.0 |
| 20260507020002 | 54 | 238 | 1.7 | 2.6 | 0.00 | 0.00 | 0.00 | 89 | 1011.0 |
| 20260507014502 | 54 | 245 | 3.5 | 5.2 | 0.00 | 0.00 | 0.00 | 89 | 1011.0 |
| 20260507011501 | 54 | 181 | 2.6 | 2.6 | 0.00 | 0.00 | 0.00 | 90 | 1011.0 |
| 20260507010002 | 54 | 272 | 2.6 | 3.5 | 0.00 | 0.00 | 0.00 | 90 | 1011.0 |
| 20260507004502 | 54 | 259 | 0.9 | 2.6 | 0.00 | 0.00 | 0.00 | 92 | 1011.0 |
| 20260507003002 | 53 | 288 | 0.9 | 1.7 | 0.00 | 0.00 | 0.00 | 94 | 1011.0 |
| 20260507001503 | 53 | 275 | 0.0 | 0.9 | 0.00 | 0.00 | 0.00 | 94 | 1011.0 |
| 20260507000002 | 54 | 283 | 0.0 | 0.9 | 0.00 | 0.00 | 0.00 | 94 | 1011.0 |
| 20260506234502 | 54 | 256 | 0.9 | 2.6 | 0.00 | 0.00 | 0.00 | 94 | 1011.0 |
| 20260506233001 | 54 | 263 | 0.9 | 0.9 | 0.00 | 0.00 | 0.00 | 94 | 1010.0 |
| 20260506231502 | 54 | 267 | 1.7 | 1.7 | 0.00 | 0.00 | 0.00 | 94 | 1010.0 |
| 20260506230002 | 55 | 226 | 2.6 | 6.1 | 0.00 | 0.00 | 0.00 | 94 | 1010.0 |
| 20260506224502 | 55 | 272 | 3.5 | 9.6 | 0.00 | 0.00 | 0.00 | 94 | 1010.0 |
| 20260506223003 | 55 | 268 | 6.1 | 7.0 | 0.00 | 0.00 | 0.00 | 93 | 1010.0 |
| 20260506221503 | 55 | 255 | 2.6 | 5.2 | 0.00 | 0.00 | 0.00 | 94 | 1009.0 |
| 20260506220002 | 56 | 229 | 3.5 | 6.1 | 0.00 | 0.00 | 0.03 | 93 | 1009.0 |
| 20260506214502 | 56 | 270 | 4.3 | 7.8 | 0.00 | 0.00 | 0.03 | 93 | 1009.0 |
| 20260506213002 | 56 | 243 | 3.5 | 5.2 | 0.00 | 0.00 | 0.03 | 91 | 1009.0 |
| 20260506211502 | 56 | 24 | 0.0 | 0.0 | 0.00 | 0.00 | 0.03 | 92 | 1008.0 |
| 20260506210002 | 56 | 288 | 0.0 | 2.6 | 0.00 | 0.00 | 0.03 | 92 | 1009.0 |
| 20260506204502 | 56 | 293 | 3.5 | 5.2 | 0.00 | 0.00 | 0.03 | 92 | 1009.0 |
| 20260506203003 | 57 | 283 | 1.7 | 7.0 | 0.00 | 0.00 | 0.03 | 91 | 1009.0 |
| 20260506201501 | 57 | 300 | 6.1 | 8.7 | 0.00 | 0.00 | 0.03 | 90 | 1008.0 |
| 20260506200002 | 59 | 297 | 6.1 | 11.3 | 0.00 | 0.00 | 0.03 | 84 | 1008.0 |
| 20260506194502 | 62 | 245 | 5.2 | 7.0 | 0.00 | 0.00 | 0.03 | 75 | 1008.0 |
| 20260506193002 | 62 | 89 | 0.9 | 2.6 | 0.00 | 0.00 | 0.03 | 74 | 1007.0 |
| 20260506191502 | 62 | 46 | 1.7 | 6.1 | 0.00 | 0.00 | 0.03 | 73 | 1006.0 |
| 20260506190001 | 61 | 36 | 2.6 | 3.5 | 0.00 | 0.00 | 0.03 | 71 | 1006.0 |
| 20260506184502 | 61 | 289 | 0.0 | 0.0 | 0.00 | 0.00 | 0.03 | 76 | 1006.0 |
| 20260506183003 | 61 | 290 | 0.9 | 1.7 | 0.00 | 0.00 | 0.03 | 70 | 1006.0 |
| 20260506181502 | 63 | 94 | 0.0 | 0.9 | 0.00 | 0.00 | 0.03 | 68 | 1005.0 |
| 20260506180002 | 65 | 126 | 0.0 | 0.0 | 0.00 | 0.00 | 0.03 | 60 | 1005.0 |
| 20260506174502 | 68 | 129 | 0.0 | 0.0 | 0.00 | 0.00 | 0.03 | 53 | 1005.0 |
| 20260506173002 | 69 | 137 | 1.7 | 1.7 | 0.00 | 0.00 | 0.03 | 50 | 1005.0 |
| 20260506171502 | 69 | 121 | 0.9 | 1.7 | 0.00 | 0.00 | 0.03 | 48 | 1005.0 |
| 20260506170002 | 70 | 128 | 1.7 | 1.7 | 0.00 | 0.00 | 0.03 | 48 | 1005.0 |
| 20260506164502 | 71 | 104 | 0.9 | 7.8 | 0.00 | 0.00 | 0.03 | 47 | 1005.0 |
| 20260506163002 | 72 | 179 | 0.9 | 3.5 | 0.00 | 0.00 | 0.03 | 47 | 1006.0 |
| 20260506161502 | 72 | 127 | 6.1 | 8.7 | 0.00 | 0.00 | 0.03 | 45 | 1006.0 |
| 20260506160002 | 72 | 135 | 2.6 | 7.8 | 0.00 | 0.00 | 0.03 | 46 | 1006.0 |
| 20260506154502 | 72 | 122 | 0.9 | 5.2 | 0.00 | 0.00 | 0.03 | 49 | 1006.0 |
| 20260506153002 | 69 | 45 | 0.0 | 1.7 | 0.00 | 0.00 | 0.03 | 56 | 1006.0 |
| 20260506151501 | 69 | 135 | 0.9 | 2.6 | 0.00 | 0.00 | 0.03 | 57 | 1006.0 |
| 20260506150002 | 70 | 128 | 6.1 | 11.3 | 0.00 | 0.00 | 0.03 | 52 | 1006.0 |
| 20260506144502 | 70 | 129 | 2.6 | 3.5 | 0.00 | 0.00 | 0.03 | 54 | 1007.0 |
| 20260506143003 | 70 | 55 | 0.9 | 2.6 | 0.00 | 0.00 | 0.03 | 55 | 1007.0 |
| 20260506141502 | 67 | 56 | 0.0 | 1.7 | 0.00 | 0.00 | 0.03 | 70 | 1007.0 |
| 20260506140002 | 67 | 124 | 0.0 | 1.7 | 0.00 | 0.00 | 0.03 | 66 | 1007.0 |
| 20260506134502 | 67 | 23 | 0.9 | 1.7 | 0.00 | 0.00 | 0.01 | 72 | 1007.0 |
| 20260506133002 | 67 | 122 | 0.9 | 3.5 | 0.05 | 0.00 | 0.01 | 64 | 1008.0 |
| 20260506131502 | 71 | 106 | 2.6 | 3.5 | 0.00 | 0.00 | 0.00 | 46 | 1007.0 |
| 20260506130002 | 72 | 222 | 2.6 | 8.7 | 0.00 | 0.00 | 0.00 | 44 | 1008.0 |
| 20260506124502 | 70 | 168 | 0.9 | 5.2 | 0.00 | 0.00 | 0.00 | 47 | 1008.0 |
| 20260506123002 | 72 | 74 | 1.7 | 2.6 | 0.00 | 0.00 | 0.00 | 44 | 1008.0 |
| 20260506121502 | 71 | 134 | 3.5 | 6.1 | 0.00 | 0.00 | 0.00 | 46 | 1009.0 |
| 20260506120002 | 71 | 207 | 0.0 | 2.6 | 0.00 | 0.00 | 0.00 | 45 | 1008.0 |
| 20260506114502 | 73 | 258 | 3.5 | 6.1 | 0.00 | 0.00 | 0.00 | 41 | 1009.0 |
| 20260506113002 | 71 | 224 | 0.9 | 3.5 | 0.00 | 0.00 | 0.00 | 42 | 1009.0 |
| 20260506111502 | 70 | 255 | 0.0 | 1.7 | 0.00 | 0.00 | 0.00 | 45 | 1009.0 |
| 20260506110002 | 72 | 235 | 0.0 | 3.5 | 0.00 | 0.00 | 0.00 | 43 | 1009.0 |
| 20260506104503 | 73 | 187 | 2.6 | 6.1 | 0.00 | 0.00 | 0.00 | 43 | 1009.0 |
| 20260506103003 | 71 | 54 | 0.0 | 0.9 | 0.00 | 0.00 | 0.00 | 47 | 1009.0 |
| 20260506101503 | 71 | 126 | 3.5 | 5.2 | 0.00 | 0.00 | 0.00 | 48 | 1010.0 |
| 20260506100002 | 70 | 17 | 0.9 | 1.7 | 0.00 | 0.00 | 0.00 | 48 | 1010.0 |
| 20260506094502 | 70 | 270 | 0.9 | 1.7 | 0.00 | 0.00 | 0.00 | 47 | 1010.0 |
| 20260506093002 | 69 | 257 | 0.9 | 3.5 | 0.00 | 0.00 | 0.00 | 51 | 1010.0 |
| 20260506091502 | 69 | 103 | 1.7 | 6.1 | 0.00 | 0.00 | 0.00 | 53 | 1010.0 |
| 20260506090001 | 67 | 265 | 1.7 | 5.2 | 0.00 | 0.00 | 0.00 | 55 | 1010.0 |
| 20260506084502 | 67 | 286 | 2.6 | 2.6 | 0.00 | 0.00 | 0.00 | 55 | 1010.0 |
| 20260506083003 | 67 | 230 | 2.6 | 3.5 | 0.00 | 0.00 | 0.00 | 56 | 1010.0 |
| 20260506081502 | 66 | 231 | 1.7 | 2.6 | 0.00 | 0.00 | 0.00 | 58 | 1010.0 |
| 20260506073002 | 65 | 226 | 1.7 | 3.5 | 0.00 | 0.00 | 0.00 | 63 | 1010.0 |
| 20260506071502 | 63 | 205 | 1.7 | 3.5 | 0.00 | 0.00 | 0.00 | 67 | 1010.0 |
| 20260506061502 | 58 | 221 | 0.9 | 1.7 | 0.00 | 0.00 | 0.00 | 82 | 1010.0 |